Other Public Products
Issued by NWS Charleston, SC

Current Version | Previous Version | Graphics & Text | Print | Product List | Glossary On
Versions: 1 2 3 4 5 6 7 8 9 10 11 12 13 14 15 16 17 18 19 20 21 22 23 24 25 26 27 28 29 30 31 32 33 34 35 36 37 38 39 40 41 42 43 44 45 46 47 48 49 50
000
FPUS82 KCHS 191827
OPUCHS

TEST...KCHS/KSAV Gateway Observations...TEST
National Weather Service Charleston SC
100 PM EST SUN NOV 19 2017

NOTE: "fair" indicates few or no clouds below 12,000 feet with no
significant weather and/or obstructions to visibility.

SCZ050-WAZ558-NCZ071-TXZ119-213-PAZ071-DCZ001-FLZ074-172-MI076-
NYZ176-178-MAZ016-IL014-TNZ027-NJZ106-GAZ044-MD014-191900-

...Gateway Observations for Charleston International...

CITY           SKY/WX    TMP DP  RH WIND       PRES   REMARKS
Chas Airport   MOSUNNY   66  46  48 N14G24    29.84F
6HR MIN TEMP:  61; 6HR MAX TEMP:  66; 6HR PCP: TRACE;

Seattle        CLOUDY    51  29  42 S10       29.90F
6HR MIN TEMP:  40; 6HR MAX TEMP:  51;

Charlotte      MOSUNNY   58  27  30 NW13      29.89S
6HR MIN TEMP:  48; 6HR MAX TEMP:  59;

Dallas DFW     PTSUNNY   59  30  33 CALM      30.34F
6HR MIN TEMP:  38; 6HR MAX TEMP:  60;

Dallas Love    PTSUNNY   59  27  29 CALM      30.35F
6HR MIN TEMP:  42; 6HR MAX TEMP:  60;

Philladelphia  PTSUNNY   53  30  41 W24G31    29.61R
6HR MIN TEMP:  50; 6HR MAX TEMP:  54;

Wash National  PTSUNNY   51  29  42 W16G30    29.75S
6HR MIN TEMP:  49; 6HR MAX TEMP:  54;

Baltimore      PTSUNNY   50  30  46 W21G32    29.71R
6HR MIN TEMP:  47; 6HR MAX TEMP:  52;

Miami          MOSUNNY   82  61  48 W7        29.93F
6HR MIN TEMP:  65; 6HR MAX TEMP:  82;

Detroit        CLOUDY    37  25  61 W16G23    29.84F WCI  28
6HR MIN TEMP:  35; 6HR MAX TEMP:  37; 6HR PCP: TRACE;

Newark         PTSUNNY   53  29  39 W29G40    29.51R
6HR MIN TEMP:  50; 6HR MAX TEMP:  58; 6HR PCP:  0.01;

Laguardia      PTSUNNY   51  32  48 NW28G37   29.49R
6HR MIN TEMP:  50; 6HR MAX TEMP:  58; 6HR PCP:  0.02;

J F K          PTSUNNY   52  32  46 NW21G36   29.50R
6HR MIN TEMP:  50; 6HR MAX TEMP:  58; 6HR PCP:  0.02;

Boston Logan   MOSUNNY   49  36  61 W21G39    29.21R
6HR MIN TEMP:  48; 6HR MAX TEMP:  60; 6HR PCP:  0.09;

Ft. Lauderdale SUNNY     81  60  48 W9        29.91F
6HR MIN TEMP:  66; 6HR MAX TEMP:  81;

Chicago O`Hare MOSUNNY   33  19  56 W18       30.04S WCI  22
6HR MIN TEMP:  30; 6HR MAX TEMP:  33;

Chicago Midway MOSUNNY   33  20  58 W16       30.05S WCI  23
6HR MIN TEMP:  30; 6HR MAX TEMP:  34;

Houston Bush   MOSUNNY   63  33  32 NE14G22   30.31F
6HR MIN TEMP:  47; 6HR MAX TEMP:  64;

Houston Hobby  MOSUNNY   63  32  31 N13G21    30.29F
6HR MIN TEMP:  49; 6HR MAX TEMP:  63;

Nashville      MOSUNNY   46  21  37 N12G18    30.16F
6HR MIN TEMP:  40; 6HR MAX TEMP:  46;

Atlanta        MOSUNNY   53  34  48 W23       30.01F
6HR MIN TEMP:  44; 6HR MAX TEMP:  54;


$$

GAZ044-118-TXZ119-213-NCZ071-DCZ001-MDZ014-506-PAZ021-071-NJZ106-
NYZ176-178-MAZ106-OHZ011-021-055-MIZ076-KYZ091-ILZ014-INZ047-
MNZ060-ONZ431-191900-

...Gateway Observations for Savannah International...

CITY           SKY/WX    TMP DP  RH WIND       PRES   REMARKS
Savannah Arpt  MOSUNNY   65  43  44 NW14G20   29.90F
6HR MIN TEMP:  58; 6HR MAX TEMP:  66;

Atlanta        MOSUNNY   53  34  48 W23       30.01F
6HR MIN TEMP:  44; 6HR MAX TEMP:  54;

Charlotte      MOSUNNY   58  27  30 NW13      29.89S
6HR MIN TEMP:  48; 6HR MAX TEMP:  59;

Dallas DFW     PTSUNNY   59  30  33 CALM      30.34F
6HR MIN TEMP:  38; 6HR MAX TEMP:  60;

Houston Bush   MOSUNNY   63  33  32 NE14G22   30.31F
6HR MIN TEMP:  47; 6HR MAX TEMP:  64;

Wash National  PTSUNNY   51  29  42 W16G30    29.75S
6HR MIN TEMP:  49; 6HR MAX TEMP:  54;

Wash Dulles    PTSUNNY   48  29  47 W18G30    29.77R
6HR MIN TEMP:  46; 6HR MAX TEMP:  50;

Baltimore      PTSUNNY   50  30  46 W21G32    29.71R
6HR MIN TEMP:  47; 6HR MAX TEMP:  52;

Philadelphia   PTSUNNY   53  30  41 W24G31    29.61R
6HR MIN TEMP:  50; 6HR MAX TEMP:  54;

Newark         PTSUNNY   53  29  39 W29G40    29.51R
6HR MIN TEMP:  50; 6HR MAX TEMP:  58; 6HR PCP:  0.01;

Laguardia      PTSUNNY   51  32  48 NW28G37   29.49R
6HR MIN TEMP:  50; 6HR MAX TEMP:  58; 6HR PCP:  0.02;

J F K          PTSUNNY   52  32  46 NW21G36   29.50R
6HR MIN TEMP:  50; 6HR MAX TEMP:  58; 6HR PCP:  0.02;

Boston         MOSUNNY   49  36  61 W21G39    29.21R
6HR MIN TEMP:  48; 6HR MAX TEMP:  60; 6HR PCP:  0.09;

Pittsburg      CLOUDY    39  28  64 W22G30    29.80F WCI  29
6HR MIN TEMP:  35; 6HR MAX TEMP:  40; 6HR PCP:  0.01;

Akron          FLURRIES  39  26  59 W20G26    29.82S WCI  29
6HR MIN TEMP:  36; 6HR MAX TEMP:  40; 6HR PCP: TRACE;

Cleveland      FLURRIES  38  30  73 W13       29.85F WCI  30
6HR MIN TEMP:  36; 6HR MAX TEMP:  40; 6HR PCP:  0.04;

Cincinnati     CLOUDY    37  29  72 W16       30.02F WCI  28
6HR MIN TEMP:  36; 6HR MAX TEMP:  38;

Columbus       CLOUDY    37  33  86 W18G24    29.93S WCI  27
Detroit        CLOUDY    37  25  61 W16G23    29.84F WCI  28
6HR MIN TEMP:  35; 6HR MAX TEMP:  37; 6HR PCP: TRACE;

Chicago O`Hare MOSUNNY   33  19  56 W18       30.04S WCI  22
6HR MIN TEMP:  30; 6HR MAX TEMP:  33;

Minneapolis    PTSUNNY   31  17  56 VRB5      30.01F WCI  26
6HR MIN TEMP:  18; 6HR MAX TEMP:  31;

Indianapolis   PTSUNNY   33  23  66 W20       30.07S WCI  21
6HR MIN TEMP:  33; 6HR MAX TEMP:  35;

Toronto Canada PTSUNNY   39  25  56 NW23      29.65R WCI  29

$$




USA.gov is the U.S. government's official web portal to all federal, state and local government web resources and services.